Weather History for Lawton, OK

Change the Weather History Date:

Wednesday, April 24, 2013

  Actual Average Record
Temperature  
Mean Temperature 45 °F -  
Max Temperature 61 °F 77 °F 93 °F (2008)
Min Temperature 30 °F 51 °F 30 °F (2013)
Degree Days  
Heating Degree Days 20    
Moisture  
Dew Point 29 °F    
Average Humidity 55    
Maximum Humidity 86    
Minimum Humidity 32    
Precipitation  
Precipitation 0.00 in - - ()
Sea Level Pressure  
Sea Level Pressure 30.31 in    
Wind  
Wind Speed 10 mph (NNE)    
Max Wind Speed 20 mph    
Max Gust Speed 23 mph    
Visibility 10 miles    
Events      
Averages and records for this station are not official NWS values.
T = Trace of Precipitation, MM = Missing Value Source: NWS Daily Summary

Daily Weather History Graph

Daily Weather History Graph

Search for Another Location

Airport:

Trip Planner

Search our weather history database for the weather conditions in past years. The results will help you decide how hot, cold, wet, or windy it might be!

Date:

Astronomy

Apr. 24, 2013 Rise Set
Actual Time 6:50 AM CDT 8:13 PM CDT
Civil Twilight 6:24 AM CDT 8:39 PM CDT
Nautical Twilight 5:52 AM CDT 9:11 PM CDT
Astronomical Twilight 5:19 AM CDT 9:44 PM CDT
Moon 7:19 PM CDT (4/24) 5:52 AM CDT (4/24)
Length of Visible Light 14h 15m
Length of Day
13h 22m
Waxing Gibbous, 98% of the Moon is Illuminated
Apr 24
Waxing Gibbous
Apr 25
Full
May 2
Last Quarter
May 9
New
May 17
First Quarter

Hourly Weather History & Observations

Time (CDT) Temp. Windchill Dew Point Humidity Pressure Visibility Wind Dir Wind Speed Gust Speed Precip Events Conditions
12:53 AM 37.0 °F 29.8 °F 26.1 °F 65% 30.32 in 10.0 mi NNW 10.4 mph - N/A   Mostly Cloudy
1:53 AM 37.0 °F 26.7 °F 26.1 °F 65% 30.32 in 10.0 mi NNW 19.6 mph 23.0 mph N/A   Clear
2:53 AM 36.0 °F 27.1 °F 26.1 °F 67% 30.30 in 10.0 mi NNW 13.8 mph - N/A   Clear
3:53 AM 34.0 °F 26.6 °F 26.1 °F 73% 30.29 in 10.0 mi NNW 9.2 mph - N/A   Clear
5:53 AM 33.1 °F 24.4 °F 27.0 °F 78% 30.32 in 10.0 mi North 11.5 mph - N/A   Clear
6:53 AM 30.9 °F 26.2 °F 26.1 °F 82% 30.35 in 10.0 mi North 4.6 mph - N/A   Clear
7:53 AM 35.1 °F 27.9 °F 28.0 °F 76% 30.34 in 10.0 mi North 9.2 mph - N/A   Clear
8:53 AM 41.0 °F 35.8 °F 28.0 °F 60% 30.36 in 10.0 mi NNE 8.1 mph - N/A   Clear
9:53 AM 45.0 °F 39.3 °F 27.0 °F 49% 30.36 in 10.0 mi North 11.5 mph - N/A   Clear
10:53 AM 48.0 °F - 28.0 °F 46% 30.36 in 10.0 mi NNE 9.2 mph - N/A   Clear
11:53 AM 50.0 °F - 28.9 °F 44% 30.35 in 10.0 mi Variable 5.8 mph - N/A   Clear
12:53 PM 53.1 °F - 28.0 °F 38% 30.32 in 10.0 mi North 12.7 mph - N/A   Clear
1:53 PM 55.9 °F - 28.9 °F 36% 30.30 in 10.0 mi North 8.1 mph - N/A   Clear
2:53 PM 57.9 °F - 30.9 °F 36% 30.28 in 10.0 mi NE 6.9 mph - N/A   Clear
3:53 PM 60.1 °F - 30.0 °F 32% 30.25 in 10.0 mi NNE 11.5 mph 17.3 mph N/A   Clear
4:53 PM 60.1 °F - 30.0 °F 32% 30.23 in 10.0 mi East 8.1 mph - N/A   Clear
5:53 PM 59.0 °F - 30.0 °F 33% 30.24 in 10.0 mi East 9.2 mph - N/A   Clear
6:53 PM 57.0 °F - 30.9 °F 37% 30.25 in 10.0 mi ENE 9.2 mph - N/A   Clear
7:53 PM 53.1 °F - 37.0 °F 55% 30.27 in 10.0 mi ENE 5.8 mph - N/A   Clear
8:53 PM 51.1 °F - 32.0 °F 48% 30.28 in 10.0 mi NE 5.8 mph - N/A   Clear
9:53 PM 48.0 °F - 32.0 °F 54% 30.31 in 10.0 mi NE 4.6 mph - N/A   Clear
10:53 PM 41.0 °F - 34.0 °F 76% 30.33 in 10.0 mi Calm Calm - N/A   Clear
11:53 PM 37.9 °F - 34.0 °F 86% 30.33 in 10.0 mi Calm Calm - N/A   Clear